Location: Unspecified
(47.4992°N, 121.7766°W)
Time: 16:43:24
(UTC-08:00)

Cosmos 1674 - Visible Passes

Search period start: 22 January 2019 00:00
Search period end: 01 February 2019 00:00
Orbit: 497 x 519 km, 82.5° (Epoch: 22 January)

Date Brightness Start Highest point End Pass type
(mag) Time Alt. Az. Time Alt. Az. Time Alt. Az.
22 Jan 4.8 17:51:08 10° SW 17:54:29 28° WNW 17:57:51 10° NNW visible
23 Jan 4.4 17:33:29 10° SW 17:37:02 35° WNW 17:40:37 10° N visible
28 Jan 5.7 17:44:27 10° W 17:45:59 12° WNW 17:47:33 10° NW visible
